Kuala Lumpur, Malaysia

8:18 AM +08 on September 22, 2017 (GMT +0800)
Kuala Lumpur International -Sepang

Weather History for WMKK - May, 2013

Change the Weather History Date:

Saturday, May 4, 2013

  Actual Average Record
Temperature  
Mean Temperature 84 °F -  
Max Temperature 92 °F - - ()
Min Temperature 75 °F - - ()
Cooling Degree Days 18    
Growing Degree Days 34 (Base 50)    
Moisture  
Dew Point 77 °F    
Average Humidity 86    
Maximum Humidity 97    
Minimum Humidity 61    
Precipitation  
Precipitation 1.42 in - - ()
Sea Level Pressure  
Sea Level Pressure 29.76 in    
Wind  
Wind Speed 5 mph ()    
Max Wind Speed 12 mph    
Max Gust Speed -    
Visibility 6.1 miles    
Events Rain , Thunderstorm    
T = Trace of Precipitation, MM = Missing Value Source: Averaged Metar Reports

Daily Weather History Graph

Daily Weather History Graph

Search for Another Location

Airport or City:

Trip Planner

Search our weather history database for the weather conditions in past years. The results will help you decide how hot, cold, wet, or windy it might be!

Date:

Astronomy

May. 04, 2013 Rise Set
Actual Time 7:03 AM +08 7:17 PM +08
Civil Twilight 6:42 AM +08 7:39 PM +08
Nautical Twilight 6:16 AM +08 8:04 PM +08
Astronomical Twilight 5:51 AM +08 8:29 PM +08
Moon 2:29 AM +08 (5/4) 2:50 PM +08 (5/4)
Length of Visible Light 12h 57m
Length of Day
12h 14m
Waning Crescent, 32% of the Moon is Illuminated
May 4
Waning Crescent
May 10
New
May 18
First Quarter
May 25
Full
Jun 1
Last Quarter

Hourly Weather History & Observations

Time (+08) Temp. Heat Index Dew Point Humidity Pressure Visibility Wind Dir Wind Speed Gust Speed Precip Events Conditions
12:00 AM 78.8 °F - 75.2 °F 89% 29.83 in 6.2 mi NE 9.2 mph - N/A   Mostly Cloudy
12:30 AM 78.8 °F - 75.2 °F 89% 29.80 in 6.2 mi NNE 8.1 mph - N/A   Mostly Cloudy
1:00 AM 78.8 °F - 75.2 °F 89% 29.80 in 6.2 mi NNE 5.8 mph - N/A   Mostly Cloudy
1:30 AM 78.8 °F - 75.2 °F 89% 29.77 in 6.2 mi NE 4.6 mph - N/A   Mostly Cloudy
2:00 AM 78 °F - 77 °F 94% 29.77 in 6 mi East 3.5 mph - -   Scattered Clouds
2:00 AM 78.8 °F - 75.2 °F 89% 29.77 in 6.2 mi SE 4.6 mph - N/A   Mostly Cloudy
2:30 AM 78.8 °F - 75.2 °F 89% 29.74 in 6.2 mi SSE 4.6 mph - N/A   Mostly Cloudy
3:00 AM 77.0 °F - 75.2 °F 94% 29.74 in 6.2 mi SE 6.9 mph - N/A   Mostly Cloudy
3:30 AM 77.0 °F - 75.2 °F 94% 29.74 in 6.2 mi SSE 5.8 mph - N/A   Mostly Cloudy
4:00 AM 77.0 °F - 75.2 °F 94% 29.74 in 6.2 mi SE 4.6 mph - N/A   Mostly Cloudy
4:30 AM 78.8 °F - 77.0 °F 94% 29.74 in 6.2 mi ESE 3.5 mph - N/A   Mostly Cloudy
5:00 AM 78 °F - 76 °F 93% 29.75 in 6 mi NNE 1.2 mph - -   Mist
5:00 AM 78.8 °F - 77.0 °F 94% 29.74 in 6.2 mi SE 4.6 mph - N/A   Mostly Cloudy
5:30 AM 78.8 °F - 75.2 °F 89% 29.74 in 6.2 mi SE 6.9 mph - N/A   Mostly Cloudy
6:00 AM 78.8 °F - 75.2 °F 89% 29.74 in 6.2 mi East 6.9 mph - N/A   Mostly Cloudy
6:30 AM 78.8 °F - 75.2 °F 89% 29.77 in 6.2 mi East 6.9 mph - N/A   Mostly Cloudy
7:00 AM 78.8 °F - 75.2 °F 89% 29.77 in 6.2 mi East 8.1 mph - N/A   Mostly Cloudy
7:30 AM 78.8 °F - 75.2 °F 89% 29.77 in 6.2 mi ESE 3.5 mph - N/A   Mostly Cloudy
8:00 AM 78 °F - 76 °F 93% 29.79 in 6 mi NNW 2.3 mph - -   Haze
8:00 AM 78.8 °F - 75.2 °F 89% 29.77 in 6.2 mi ENE 2.3 mph - N/A   Mostly Cloudy
8:30 AM 78.8 °F - 75.2 °F 89% 29.77 in 6.2 mi ENE 2.3 mph - N/A   Mostly Cloudy
9:00 AM 80.6 °F 87.1 °F 77.0 °F 89% 29.80 in 6.2 mi East 3.5 mph - N/A   Mostly Cloudy
9:30 AM 82.4 °F 90.9 °F 77.0 °F 84% 29.83 in 6.2 mi East 2.3 mph - N/A   Mostly Cloudy
10:00 AM 82.4 °F 90.9 °F 77.0 °F 84% 29.83 in 6.2 mi SE 3.5 mph - N/A   Mostly Cloudy
10:30 AM 84.2 °F 94.1 °F 77.0 °F 79% 29.83 in 6.2 mi SSE 3.5 mph - N/A   Mostly Cloudy
11:00 AM 86 °F - 79 °F 75% 29.83 in 9 mi NE 5.8 mph - -   Haze
11:00 AM 86.0 °F 99.3 °F 78.8 °F 79% 29.83 in 6.2 mi ESE 4.6 mph - N/A   Mostly Cloudy
11:30 AM 87.8 °F 102.5 °F 78.8 °F 75% 29.80 in 6.2 mi SE 5.8 mph - N/A   Mostly Cloudy
12:00 PM 89.6 °F 104.7 °F 78.8 °F 70% 29.80 in 6.2 mi SE 6.9 mph - N/A   Mostly Cloudy
12:30 PM 87.8 °F 102.5 °F 78.8 °F 75% 29.77 in 6.2 mi South 8.1 mph - N/A   Mostly Cloudy
1:00 PM 87.8 °F 102.5 °F 78.8 °F 75% 29.77 in 6.2 mi SSE 9.2 mph - N/A   Mostly Cloudy
1:30 PM 87.8 °F 102.5 °F 78.8 °F 75% 29.74 in 6.2 mi SSE 10.4 mph - N/A   Mostly Cloudy
2:00 PM 92 °F - 80 °F 61% 29.73 in 9 mi ENE 5.8 mph - -   Haze
2:00 PM 87.8 °F 102.5 °F 78.8 °F 75% 29.74 in 6.2 mi South 9.2 mph - N/A   Mostly Cloudy
2:30 PM 89.6 °F 102.2 °F 77.0 °F 66% 29.71 in 6.2 mi South 11.5 mph - N/A   Mostly Cloudy
3:00 PM 82.4 °F 90.9 °F 77.0 °F 84% 29.74 in 2.5 mi SE 11.5 mph - N/A Rain , Thunderstorm Light Thunderstorms and Rain
3:30 PM 80.6 °F 87.1 °F 77.0 °F 89% 29.71 in 3.7 mi SSE 5.8 mph - N/A Rain , Thunderstorm Light Thunderstorms and Rain
4:00 PM 82.4 °F 92.4 °F 78.8 °F 89% 29.68 in 5.0 mi ESE 3.5 mph - N/A Rain Light Rain
4:30 PM 82.4 °F 92.4 °F 78.8 °F 89% 29.68 in 5.6 mi ESE 3.5 mph - N/A   Mostly Cloudy
5:00 PM 80 °F - 79 °F 96% 29.70 in 4 mi NNW 3.5 mph - - Rain , Thunderstorm Thunderstorms and Rain
5:00 PM 84.2 °F 96.1 °F 78.8 °F 84% 29.68 in 6.2 mi ESE 6.9 mph - N/A   Mostly Cloudy
5:30 PM 84.2 °F 96.1 °F 78.8 °F 84% 29.68 in 6.2 mi SSE 3.5 mph - N/A   Mostly Cloudy
6:00 PM 84.2 °F 94.1 °F 77.0 °F 79% 29.68 in 6.2 mi East 4.6 mph - N/A   Mostly Cloudy
6:30 PM 84.2 °F 94.1 °F 77.0 °F 79% 29.68 in 6.2 mi SE 4.6 mph - N/A   Mostly Cloudy
7:00 PM 82.4 °F 90.9 °F 77.0 °F 84% 29.71 in 6.2 mi East 3.5 mph - N/A   Mostly Cloudy
7:30 PM 82.4 °F 90.9 °F 77.0 °F 84% 29.71 in 6.2 mi East 3.5 mph - N/A   Mostly Cloudy
8:00 PM 80 °F - 79 °F 94% 29.74 in 6 mi NE 1.2 mph - -   Partly Cloudy
8:00 PM 82.4 °F 90.9 °F 77.0 °F 84% 29.74 in 6.2 mi East 3.5 mph - N/A   Mostly Cloudy
8:30 PM 82.4 °F 92.4 °F 78.8 °F 89% 29.74 in 6.2 mi SE 1.2 mph - N/A   Mostly Cloudy
9:00 PM 82.4 °F 92.4 °F 78.8 °F 89% 29.74 in 6.2 mi Calm Calm - N/A   Mostly Cloudy
9:30 PM 82.4 °F 92.4 °F 78.8 °F 89% 29.77 in 6.2 mi SE 2.3 mph - N/A   Mostly Cloudy
10:00 PM 82.4 °F 90.9 °F 77.0 °F 84% 29.77 in 6.2 mi East 3.5 mph - N/A   Mostly Cloudy
10:30 PM 80.6 °F 87.1 °F 77.0 °F 89% 29.77 in 6.2 mi East 6.9 mph - N/A   Mostly Cloudy
11:00 PM 80 °F - 79 °F 97% 29.80 in 6 mi North 2.3 mph - -   Mist
11:00 PM 80.6 °F 87.1 °F 77.0 °F 89% 29.77 in 6.2 mi East 5.8 mph - N/A   Mostly Cloudy
11:30 PM 80.6 °F 87.1 °F 77.0 °F 89% 29.80 in 6.2 mi ESE 3.5 mph - N/A   Mostly Cloudy